Other Public Products
Issued by NWS Grand Forks, ND

Home | Current Version | Previous Version | Text Only | Print | Product List | Glossary On
Versions: 1 2 3 4 5 6 7 8 9 10 11 12 13 14 15 16 17 18 19 20 21 22 23 24 25 26 27 28 29 30 31 32 33 34 35 36 37 38 39 40 41 42 43 44 45 46 47 48 49 50
135
FPUS83 KFGF 270231
OPUFGF
PRAIRIE TO PINES WEATHER ROUNDUP
NATIONAL WEATHER SERVICE EASTERN NORTH DAKOTA/GRAND FORKS ND
900 PM CDT MON SEP 26 2016

 **SATELLITE DATA USED TO AUGMENT SKY COVER AT AUTOMATED STATIONS**
 *****  WEATHER ACROSS EASTERN NORTH DAKOTA  *****

CITY           SKY/WX    TMP DP  RH WIND       PRES   REMARKS
GRAND FORKS    CLEAR     48  38  68 NW8       29.93R
GRAND FORKS AF CLEAR     51  35  53 NW7       29.94R
GRAND CITY NWS NOT AVBL
BUXTON           N/A     58  43  56 NW8         N/A
DEVILS LAKE    CLEAR     50  36  58 NW9       30.00R
FARGO          CLEAR     52  31  44 W9        29.95R
WAHPETON ARPT  CLEAR     48  32  53 W8        29.96S
$$

 *****  WEATHER ACROSS CENTRAL AND WESTERN NORTH DAKOTA  *****

CITY           SKY/WX    TMP DP  RH WIND       PRES   REMARKS
JAMESTOWN      CLEAR     49  38  65 NW8       30.00S
BISMARCK       CLEAR     54  38  54 W6        30.08S
MINOT          CLEAR     57  37  47 W9        30.05S
MINOT AFB      CLEAR     48  38  70 NW10      30.04S
GARRISON         N/A     48  38  68 NW8       30.07S
WILLISTON      CLEAR     51  41  68 NW5       30.09S
DICKINSON      CLEAR     50  38  63 W5        30.11F
HETTINGER      CLOUDY    47  39  74 CALM      30.16S
$$

 *****  OTHER OBSERVATIONS NORTHEAST NORTH DAKOTA  *****

CITY           SKY/WX    TMP DP  RH WIND       PRES   REMARKS
WALHALLA       FAIR      50  46  87 NW3       29.96R
LANGDON        FAIR      48  34  57 NW13      29.97S
CAVALIER       FAIR      46  45  93 NW5       29.95R
GRAFTON        FAIR      50  46  87 NW6       29.96S
CANDO          FAIR      45  34  65 NW8       30.02S
FORT TOTTEN      N/A     56  36  46 NW7       29.95S
ROLLA          FAIR      50  32  50 NW12      30.02S
RUGBY          FAIR      46  37  71 W10       30.02S
 ***** THE ABOVE OBSERVATIONS ARE NON NWS ARE NOT QUALITY
        CONTROLLED AND MAY MIS-REPORT RAIN FOR SNOW...
$$

 *****  OTHER OBSERVATIONS SOUTHEAST NORTH DAKOTA *****

CITY           SKY/WX    TMP DP  RH WIND       PRES   REMARKS
COOPERSTOWN    FAIR      46  36  66 NW9       29.99R
VALLEY CITY    FAIR      50  36  57 NW12      30.01S
OAKES          NOT AVBL
GWINNER        FAIR      48  34  57 W8        30.01S
SHEYENNE NWR     N/A     52  32  47 W6        29.95S
BUFFALO          N/A     52  29  41 W9          N/A
WYNDMERE         N/A     52  36  54 W5          N/A
 ***** THE ABOVE OBSERVATIONS ARE NON NWS ARE NOT QUALITY
       CONTROLLED AND MAY MIS-REPORT RAIN FOR SNOW...
$$

  *****  WEATHER ACROSS NORTHERN MINNESOTA  *****

CITY           SKY/WX    TMP DP  RH WIND       PRES   REMARKS
FLAG ISLAND    CLOUDY    52  46  82 NW23G30   29.78S
WARROAD        CLOUDY    52  45  76 NW16      29.84S
ROSEAU         CLOUDY    52  45  76 NW13G20   29.85F
HALLOCK        CLEAR     48  45  87 NW5       29.92S
THF RVR FALLS  CLEAR     49  43  80 NW12      29.92S
HALSTAD          N/A     51  34  51 NW10        N/A
FOSSTON        CLEAR     46  41  81 W7        29.92S
BAUDETTE       CLOUDY    52  44  74 NW21G28   29.79R
WASKISH        CLOUDY    52  45  76 W21G31    29.81S
CROOKSTON      CLEAR     48  45  87 N6        29.94R
$$
  *****  WEATHER ACROSS CENTRAL AND WEST MINNESOTA  *****

CITY           SKY/WX    TMP DP  RH WIND       PRES   REMARKS
BEMIDJI        CLEAR     49  40  70 NW16G28   29.87S
PARK RAPIDS    CLEAR     52  40  63 NW9       29.88S
WADENA         CLEAR     52  39  62 W6        29.90S
DETROIT LAKES  CLEAR     52  41  66 NW13      29.92F
MOORHEAD       CLEAR     54  28  37 NW9       29.95S
FERGUS FALLS   CLEAR     48  34  57 W8        29.96S
ELBOW LAKE     FAIR      50  34  54 NW6       29.96R
MORRIS MN      CLEAR     48  34  57 NW9       29.96S
STAPLES        CLEAR     52  39  62 W9        29.89S
WHEATON        CLEAR     55  36  47 W7        29.99R
$$
  *****  WEATHER ELSEWHERE ACROSS MINNESOTA  *****

CITY           SKY/WX    TMP DP  RH WIND       PRES   REMARKS
DULUTH         LGT RAIN  51  45  79 W20G28    29.72F
INTRNTL FALLS  LGT RAIN  50  47  89 NW18G26   29.71S
ELY            LGT RAIN  48  46  93 NW13G26   29.64S
CLOQUET        CLOUDY    54  39  58 W18G26    29.75F
BRAINERD       MOCLDY    56  41  57 NW15G23   29.87R
HIBBING        LGT RAIN  48  45  89 NW12G20   29.74F
ALEXANDRIA     CLEAR     54  33  45 W10       29.95R
SAINT CLOUD    CLEAR     49  40  71 W6        29.89R
MINNEAPOLIS    CLEAR     58  36  43 W10       29.88S
$$

  *****  WEATHER ACROSS SOUTH DAKOTA  *****

CITY           SKY/WX    TMP DP  RH WIND       PRES   REMARKS
SIOUX FALLS    CLEAR     56  38  50 W8        30.04S
BROOKINGS      CLEAR     51  35  54 W5        30.03R
WATERTOWN      CLEAR     58  35  42 NW10      30.03R
HURON          CLEAR     51  33  50 W7        30.06R
SISSETON         N/A     56  34  43 NW10      29.98R
ABERDEEN       CLEAR     58  34  40 NW10      30.05R
MITCHELL       CLEAR     57  38  48 W5        30.07R
PIERRE         CLEAR     57  37  47 N8        30.10R
MOBRIDGE       CLEAR     55  38  52 NW5       30.08S
RAPID CITY     CLEAR     56  40  55 N13       30.20R
$$

  *****  SOME WEATHER IN NEARBY STATES *****

CITY           SKY/WX    TMP DP  RH WIND       PRES   REMARKS
GLASGOW MT     CLEAR     62  44  51 CALM      30.08F
GREAT FALLS MT CLEAR     62  41  46 SW13      30.10F
CHEYENNE WY    CLOUDY    57  38  48 E6        30.37R
SCOTTSBLUFF NE CLEAR     57  45  64 NE8       30.26R
OMAHA NE       CLEAR     59  50  72 NW6       30.08R
DES MOINES IA  CLEAR     61  44  53 W7        30.03R
DAVENPORT IA   CLEAR     58  39  49 SW8       29.98S
CHICAGO IL     CLEAR     60  34  37 SW7       29.94R
EAU CLAIRE WI  PTCLDY    54  38  54 W9        29.83S
LA CROSSE WI   CLEAR     62  36  37 W12       29.87S
$$

  *****  SOME NATIONAL WEATHER *****

CITY           SKY/WX    TMP DP  RH WIND       PRES   REMARKS
LA GUARDIA NY  CLOUDY    70  56  61 S16       30.04F
RALEIGH NC     MOCLDY    71  67  87 S3        30.05S
ATLANTA GA     MOCLDY    78  65  63 CALM      30.03S
NEW ORLEANS LA MOCLDY    83  73  72 CALM      29.98R
OKLAHOMA CITY  MOCLDY    66  40  38 N8        30.18S
ALBUQUERQUE NM PTCLDY    64  29  26 E12       30.32R
SALT LAKE CITY PTCLDY    63  49  60 W5        30.26S
LOS ANGELES CA PTCLDY    84  52  33 SW7       29.85R
BOISE ID       CLEAR     76  39  26 S3        30.13S
SEATTLE WA     PTCLDY    72  54  53 W6        30.02S
$$

*** WEATHER ACROSS MANITOBA...SASKATCHEWAN AND ONTARIO ***
                ***ONTARIO***

CITY           SKY/WX    TMP DP  RH WIND       PRES   REMARKS
GERALDTON      PTCLDY    50  50 100 NE3       29.35F
THUNDER BAY    CLOUDY    52  48  87 W14G21    29.46R
SIOUX LOOKOUT  LGT RAIN  46  46 100 NW17G25   29.55S FOG
TORONTO        PTCLDY    57  52  82 SW9       29.86S
BIG TROUT LK   LGT RAIN  48  46  93 NW13G22   29.50S FOG
PICKLE LAKE    LGT RAIN  48  46  93 NW7G22    29.45R FOG
DRYDEN         LGT RAIN  48  46  93 NW12G20   29.61S
KENORA         LGT RAIN  50  46  87 NW17G26   29.73S
$$
                *** MANITOBA***

CITY           SKY/WX    TMP DP  RH WIND       PRES   REMARKS
BRANDON        CLEAR     46  34  61 NW6       30.00R
DAUPHIN        CLEAR     41  34  75 W7        29.98S
ISLAND LAKE    LGT RAIN  48  46  93 N17G30    29.77S
PILOT MOUND      N/A     50  32  50 NW14        N/A
THE PAS        PTCLDY    52  43  71 NW7       30.00S
THOMPSON       MOCLDY    46  39  76 N14G24    29.95
WINNIPEG       PTCLDY    50  43  76 NW16      29.92S
LYNN LAKE      CLEAR     41  37  87 NW5       30.01R
CHURCHILL      LGT RAIN  45  43  93 N29G36    29.85R
GILLAM         CLOUDY    46  41  81 N26G35    29.82F
$$
                ***SASKATCHEWAN***

CITY           SKY/WX    TMP DP  RH WIND       PRES   REMARKS
ESTEVAN        PTCLDY    46  37  71 NW6       30.07S
KINDERSLEY     PTCLDY    57  41  54 SE12      29.97F
LLOYDMINSTER   PTCLDY    57  43  58 SE12      29.91F
PRINCE ALBERT  PTCLDY    48  39  71 E3        30.01S
REGINA         CLEAR     55  37  50 CALM      30.06F
YORKTON        CLEAR     48  37  66 W8        30.03F   C1F1C2F2C3F3C4F4C5F5C6F6C7F7C8F8C9F9CaFaCbFbCcFcCdFdCe!



USA.gov is the U.S. government's official web portal to all federal, state and local government web resources and services.